Location: Caltech
(34.1382°N, 118.1253°W)
Time: 21:09:00
(UTC-07:00)

Cosmos 1833 Rocket - Visible Passes

Search period start: 25 April 2017 00:00
Search period end: 05 May 2017 00:00
Orbit: 833 x 839 km, 71.0° (Epoch: 24 April)

Date Brightness Start Highest point End Pass type
(mag) Time Alt. Az. Time Alt. Az. Time Alt. Az.
25 Apr 4.0 04:06:58 15° SSE 04:11:00 35° ESE 04:16:01 10° NE visible
26 Apr 4.1 03:51:16 19° SSE 03:54:21 32° ESE 03:59:15 10° NE visible
26 Apr 3.7 05:33:21 10° WSW 05:38:10 29° WNW 05:43:03 10° N visible
27 Apr 4.2 03:35:29 22° SE 03:37:42 29° ESE 03:42:27 10° NE visible
27 Apr 3.6 05:17:12 13° WSW 05:21:28 32° WNW 05:26:27 10° N visible
28 Apr 4.3 03:19:37 23° SE 03:21:03 26° ESE 03:25:38 10° NE visible
28 Apr 3.4 05:01:20 18° WSW 05:04:45 35° WNW 05:09:52 10° N visible
29 Apr 4.3 03:03:41 23° ESE 03:04:25 24° E 03:08:48 10° NE visible
29 Apr 3.3 04:45:24 24° WSW 04:48:03 38° WNW 04:53:16 10° N visible
30 Apr 4.5 02:47:42 22° ESE 02:47:47 22° E 02:51:57 10° NE visible
30 Apr 3.2 04:29:24 31° WSW 04:31:20 42° WNW 04:36:39 10° N visible
01 May 4.7 02:31:39 19° E 02:31:39 19° E 02:35:04 10° NE visible
01 May 3.1 04:13:21 39° W 04:14:39 45° WNW 04:20:02 10° N visible
02 May 4.9 02:15:33 17° E 02:15:33 17° E 02:18:09 10° ENE visible
02 May 2.9 03:57:15 47° W 03:57:56 50° WNW 04:03:24 10° N visible
03 May 5.0 01:59:24 15° E 01:59:24 15° E 02:01:12 10° ENE visible
03 May 2.8 03:41:06 55° WNW 03:41:14 55° WNW 03:46:46 10° NNE visible
04 May 5.2 01:43:13 12° ENE 01:43:13 12° ENE 01:44:11 10° ENE visible
04 May 2.9 03:24:55 59° NW 03:24:55 59° NW 03:30:07 10° NNE visible
